EW0139 Weather Reports


time (UTC)temp
F
wind
direction
speed
knots
gust
knots
rain 1hr
in
rain 24hr
in
rain mn
in
humidity
%
barometer
mb
20260504214745 49 293 23.5 31.3 0.00 0.00 0.00 42 1011.5
20260504213748 48 304 20.0 27.8 0.00 0.00 0.00 43 1011.5
20260504212749 48 294 20.0 27.8 0.00 0.00 0.00 43 1011.4
20260504211754 48 290 16.5 28.7 0.00 0.00 0.00 42 1011.4
20260504210755 49 315 20.9 28.7 0.00 0.00 0.00 42 1011.5
20260504205755 49 290 22.6 28.7 0.00 0.00 0.00 41 1011.5
20260504204819 49 298 13.0 31.3 0.00 0.00 0.00 41 1011.4
20260504203759 50 317 19.1 28.7 0.00 0.00 0.00 40 1011.4
20260504202742 49 321 15.6 27.8 0.00 0.00 0.00 40 1011.5
20260504201743 50 305 18.2 27.8 0.00 0.00 0.00 40 1011.4
20260504200744 51 275 25.2 27.8 0.00 0.00 0.00 40 1011.2
20260504195745 50 302 17.4 28.7 0.00 0.00 0.00 40 1011.2
20260504194750 49 317 22.6 27.8 0.00 0.00 0.00 39 1011.2
20260504193811 49 292 25.2 28.7 0.00 0.00 0.00 41 1012.2
20260504192751 50 296 22.6 33.0 0.00 0.00 0.00 41 1012.2
20260504191757 51 313 20.0 30.4 0.00 0.00 0.00 41 1011.9
20260504190817 49 296 18.2 27.8 0.00 0.00 0.00 42 1011.9
20260504185759 49 300 24.3 27.8 0.00 0.00 0.00 41 1012.0
20260504184740 50 288 19.1 33.9 0.00 0.00 0.00 41 1011.8
20260504183803 50 294 25.2 26.9 0.00 0.00 0.00 40 1011.7
20260504182743 50 279 20.9 33.9 0.00 0.00 0.00 39 1011.6
20260504181751 49 284 20.9 28.7 0.00 0.00 0.00 40 1011.7
20260504180754 51 294 14.8 27.8 0.00 0.00 0.00 40 1011.6
20260504175817 50 298 17.4 29.5 0.00 0.00 0.00 39 1011.7
20260504174817 49 300 15.6 27.8 0.00 0.00 0.00 42 1011.8
20260504173756 49 321 23.5 28.7 0.00 0.00 0.00 42 1011.7
20260504172742 49 294 26.9 28.7 0.00 0.00 0.00 41 1011.7
20260504171804 49 283 20.0 29.5 0.00 0.00 0.00 41 1011.8
20260504170745 50 289 20.0 27.8 0.00 0.00 0.00 40 1011.6
20260504150753 47 288 13.9 25.2 0.00 0.00 0.00 46 1011.8
20260504140750 45 285 16.5 26.9 0.00 0.00 0.00 51 1011.9
20260504130744 43 289 15.6 15.6 0.00 0.00 0.00 54 1011.6
20260504081758 53 290 13.0 25.2 0.00 0.00 0.00 44 1008.5
20260504080820 53 292 14.8 23.5 0.00 0.00 0.00 43 1008.4
20260504045742 57 313 14.8 16.5 0.00 0.00 0.00 38 1005.1
20260504044742 57 318 10.4 15.6 0.00 0.00 0.00 37 1004.9
20260504043750 57 321 6.1 10.4 0.00 0.00 0.00 37 1004.7
20260504042750 58 315 5.2 13.0 0.00 0.00 0.00 37 1004.6
20260504041814 58 334 11.3 17.4 0.00 0.00 0.00 35 1004.4
20260504040754 59 335 11.3 17.4 0.00 0.00 0.00 35 1004.5
20260504035759 59 323 11.3 17.4 0.00 0.00 0.00 34 1004.2
20260504034818 60 325 10.4 20.0 0.00 0.00 0.00 34 1004.0
20260504033743 61 308 13.9 21.7 0.00 0.00 0.00 34 1003.9
20260504032742 62 319 18.2 20.0 0.00 0.00 0.00 34 1003.8
20260504031742 62 311 9.6 13.9 0.00 0.00 0.00 37 1003.6
20260504030746 63 309 12.2 19.1 0.00 0.00 0.00 36 1003.4
20260504025750 64 321 11.3 19.1 0.00 0.00 0.00 35 1003.3
20260504024751 65 313 13.9 19.1 0.00 0.00 0.00 34 1002.8
20260504023753 66 304 13.0 22.6 0.00 0.00 0.00 33 1002.7
20260504022758 66 288 13.0 19.1 0.00 0.00 0.00 32 1002.5
20260504021743 66 290 14.8 20.0 0.00 0.00 0.00 31 1002.3
20260504020745 67 288 18.2 20.0 0.00 0.00 0.00 31 1002.2
20260504015806 68 294 15.6 20.0 0.00 0.00 0.00 30 1002.2
20260504014805 68 294 16.5 20.0 0.00 0.00 0.00 30 1002.0
20260504013753 69 277 17.4 21.7 0.00 0.00 0.00 30 1002.0
20260504012754 70 298 14.8 24.3 0.00 0.00 0.00 30 1002.1
20260504011816 70 292 22.6 24.3 0.00 0.00 0.00 29 1002.0
20260504010755 71 293 18.2 27.8 0.00 0.00 0.00 29 1002.0
20260504005803 72 279 17.4 27.8 0.00 0.00 0.00 28 1001.9
20260504004801 73 271 16.5 29.5 0.00 0.00 0.00 27 1002.0
20260504003802 73 294 25.2 28.7 0.00 0.00 0.00 27 1002.1
20260504002741 73 289 20.0 31.3 0.00 0.00 0.00 27 1002.0
20260504001742 73 279 19.1 28.7 0.00 0.00 0.00 28 1002.1
20260504000747 74 280 20.0 27.8 0.00 0.00 0.00 28 1002.1
20260503235748 74 257 21.7 26.1 0.00 0.00 0.00 28 1002.0
20260503234747 74 296 21.7 31.3 0.00 0.00 0.00 26 1002.1
20260503233751 75 279 17.4 28.7 0.00 0.00 0.00 26 1002.0
20260503232752 75 286 21.7 29.5 0.00 0.00 0.00 25 1001.9
20260503231755 76 268 26.9 30.4 0.00 0.00 0.00 23 1002.0
20260503230817 77 273 20.0 27.8 0.00 0.00 0.00 22 1002.0
20260503225817 77 290 19.1 27.8 0.00 0.00 0.00 21 1002.0
20260503224757 77 255 20.0 24.3 0.00 0.00 0.00 21 1001.8
20260503223757 77 279 20.0 26.9 0.00 0.00 0.00 22 1002.2
20260503222800 77 250 22.6 26.9 0.00 0.00 0.00 22 1002.3
20260503221800 77 261 13.9 24.3 0.00 0.00 0.00 23 1002.6
20260503220759 76 237 24.3 27.8 0.00 0.00 0.00 22 1002.7
20260503215821 76 236 22.6 28.7 0.00 0.00 0.00 22 1002.9